Weather History for K1P1 - November, 2012

Change the Weather History Date:

Wednesday, November 14, 2012

  Actual Average (KLCI) Record (KLCI)
Temperature  
Mean Temperature 33 °F -  
Max Temperature 43 °F 43 °F 62 °F (2011)
Min Temperature 23 °F 27 °F 11 °F (1986)
Degree Days  
Heating Degree Days 32    
Moisture  
Dew Point 24 °F    
Average Humidity 76    
Maximum Humidity 98    
Minimum Humidity 42    
Precipitation  
Precipitation 0.00 in - - ()
Sea Level Pressure  
Sea Level Pressure 30.50 in    
Wind  
Wind Speed 2 mph (WNW)    
Max Wind Speed 10 mph    
Max Gust Speed 17 mph    
Visibility 10 miles    
Events      
Averages and records for this station are not official NWS values.
T = Trace of Precipitation, MM = Missing Value Source: NWS Daily Summary

Daily Weather History Graph

Daily Weather History Graph

Search for Another Location

Airport or City:

Trip Planner

Search our weather history database for the weather conditions in past years. The results will help you decide how hot, cold, wet, or windy it might be!

Date:

Astronomy

Nov. 14, 2012 Rise Set
Actual Time 6:40 AM EST 4:21 PM EST
Civil Twilight 6:09 AM EST 4:52 PM EST
Nautical Twilight 5:34 AM EST 5:27 PM EST
Astronomical Twilight 5:00 AM EST 6:01 PM EST
Moon 7:28 AM EST (11/14) 5:05 PM EST (11/14)
Length of Visible Light 10h 43m
Length of Day
9h 41m
New Moon, 1% of the Moon is Illuminated
Nov 14
New Moon
Nov 20
First Quarter
Nov 28
Full
Dec 6
Last Quarter
Dec 13
New

Hourly Weather History & Observations

Time (EST) Temp. Windchill Dew Point Humidity Pressure Visibility Wind Dir Wind Speed Gust Speed Precip Events Conditions
12:15 AM 34.3 °F 31.4 °F 24.6 °F 68% 30.43 in 10.0 mi NNW 3.5 mph - N/A   Clear
12:35 AM 33.4 °F 30.4 °F 24.8 °F 71% 30.43 in 10.0 mi NW 3.5 mph - N/A   Clear
12:55 AM 32.0 °F 28.7 °F 25.3 °F 76% 30.44 in 10.0 mi NW 3.5 mph - N/A   Clear
1:15 AM 30.6 °F 25.8 °F 25.2 °F 80% 30.44 in 10.0 mi WNW 4.6 mph - N/A   Clear
1:55 AM 31.1 °F 27.7 °F 25.3 °F 79% 30.45 in 10.0 mi WNW 3.5 mph - N/A   Clear
2:15 AM 30.6 °F 27.1 °F 25.3 °F 81% 30.45 in 10.0 mi WNW 3.5 mph - N/A   Clear
2:35 AM 28.0 °F - 25.0 °F 88% 30.45 in 10.0 mi Calm Calm - N/A   Clear
2:55 AM 28.4 °F - 25.9 °F 90% 30.46 in 10.0 mi Calm Calm - N/A   Clear
3:15 AM 27.5 °F - 25.3 °F 92% 30.46 in 10.0 mi Calm Calm - N/A   Clear
3:35 AM 27.5 °F - 25.7 °F 93% 30.47 in 10.0 mi Calm Calm - N/A   Clear
3:55 AM 27.5 °F - 25.2 °F 91% 30.47 in 10.0 mi Calm Calm - N/A   Clear
4:15 AM 26.1 °F - 25.0 °F 96% 30.48 in 10.0 mi Calm Calm - N/A   Clear
4:35 AM 26.1 °F - 24.8 °F 95% 30.49 in 10.0 mi Calm Calm - N/A   Clear
4:55 AM 25.7 °F - 24.8 °F 96% 30.49 in 10.0 mi Calm Calm - N/A   Clear
5:15 AM 25.7 °F - 24.3 °F 94% 30.50 in 10.0 mi Calm Calm - N/A   Clear
5:35 AM 25.2 °F - 24.3 °F 96% 30.50 in 10.0 mi Calm Calm - N/A   Clear
5:55 AM 24.8 °F - 24.1 °F 97% 30.51 in 10.0 mi Calm Calm - N/A   Clear
6:15 AM 24.4 °F - 23.7 °F 97% 30.52 in 10.0 mi Calm Calm - N/A   Clear
6:35 AM 24.4 °F - 23.7 °F 97% 30.53 in 10.0 mi Calm Calm - N/A   Clear
6:55 AM 24.1 °F - 23.4 °F 97% 30.54 in 10.0 mi Calm Calm - N/A   Clear
7:15 AM 24.6 °F - 23.9 °F 97% 30.54 in 10.0 mi Calm Calm - N/A   Clear
7:35 AM 25.3 °F - 24.6 °F 97% 30.55 in 10.0 mi Calm Calm - N/A   Clear
7:55 AM 27.0 °F - 25.7 °F 95% 30.55 in 10.0 mi Calm Calm - N/A   Clear
8:15 AM 29.3 °F - 26.6 °F 90% 30.55 in 10.0 mi Calm Calm - N/A   Clear
8:35 AM 30.9 °F - 26.8 °F 85% 30.56 in 10.0 mi Calm Calm - N/A   Clear
8:55 AM 32.2 °F - 27.3 °F 82% 30.56 in 10.0 mi Calm Calm - N/A   Clear
9:15 AM 34.9 °F - 26.6 °F 72% 30.56 in 10.0 mi Calm Calm - N/A   Clear
9:35 AM 37.0 °F - 25.5 °F 63% 30.55 in 10.0 mi Calm Calm - N/A   Clear
9:55 AM 38.1 °F 33.7 °F 23.9 °F 57% 30.55 in 10.0 mi WNW 5.8 mph - N/A   Clear
10:15 AM 39.4 °F 33.8 °F 23.7 °F 54% 30.55 in 10.0 mi WNW 8.1 mph - N/A   Clear
10:35 AM 40.1 °F 36.1 °F 22.8 °F 50% 30.54 in 10.0 mi West 5.8 mph - N/A   Clear
10:55 AM 41.2 °F 37.3 °F 22.8 °F 48% 30.52 in 10.0 mi West 5.8 mph - N/A   Clear
11:15 AM 41.9 °F 37.5 °F 20.8 °F 43% 30.52 in 10.0 mi WNW 6.9 mph - N/A   Clear
11:35 AM 42.1 °F 38.4 °F 21.4 °F 44% 30.50 in 10.0 mi West 5.8 mph - N/A   Clear
11:55 AM 42.4 °F 37.0 °F 20.8 °F 42% 30.50 in 10.0 mi West 9.2 mph - N/A   Clear
12:15 PM 43.2 °F 39.7 °F 22.1 °F 43% 30.49 in 10.0 mi West 5.8 mph - N/A   Clear
12:35 PM 43.2 °F 37.9 °F 21.7 °F 43% 30.49 in 10.0 mi West 9.2 mph - N/A   Clear
12:55 PM 43.2 °F 38.4 °F 22.1 °F 43% 30.48 in 10.0 mi West 8.1 mph - N/A   Clear
1:15 PM 43.0 °F 37.2 °F 22.3 °F 44% 30.48 in 10.0 mi West 10.4 mph - N/A   Clear
1:35 PM 43.0 °F 38.2 °F 23.0 °F 45% 30.47 in 10.0 mi West 8.1 mph 17.3 mph N/A   Clear
1:55 PM 43.0 °F 37.7 °F 23.9 °F 47% 30.47 in 10.0 mi West 9.2 mph 16.1 mph N/A   Clear
2:15 PM 42.8 °F 37.5 °F 23.2 °F 46% 30.47 in 10.0 mi West 9.2 mph 17.3 mph N/A   Clear
2:35 PM 42.4 °F 37.5 °F 22.8 °F 46% 30.47 in 10.0 mi West 8.1 mph - N/A   Clear
2:55 PM 42.4 °F 37.5 °F 22.3 °F 45% 30.48 in 10.0 mi West 8.1 mph - N/A   Clear
3:15 PM 41.9 °F 37.5 °F 22.6 °F 46% 30.48 in 10.0 mi West 6.9 mph - N/A   Clear
3:55 PM 39.6 °F - 22.8 °F 51% 30.49 in 10.0 mi Calm Calm - N/A   Clear
4:15 PM 39.4 °F 35.2 °F 22.6 °F 51% 30.49 in 10.0 mi West 5.8 mph - N/A   Clear
4:35 PM 38.3 °F - 22.5 °F 53% 30.49 in 10.0 mi Calm Calm - N/A   Clear
4:55 PM 36.3 °F - 22.5 °F 57% 30.49 in 10.0 mi Calm Calm - N/A   Clear
5:15 PM 34.2 °F - 23.0 °F 64% 30.50 in 10.0 mi Calm Calm - N/A   Clear
5:35 PM 32.0 °F - 25.0 °F 75% 30.51 in 10.0 mi Calm Calm - N/A   Clear
5:55 PM 30.6 °F - 24.1 °F 77% 30.51 in 10.0 mi Calm Calm - N/A   Clear
6:15 PM 29.8 °F - 25.2 °F 83% 30.52 in 10.0 mi Calm Calm - N/A   Clear
6:35 PM 28.9 °F - 24.8 °F 84% 30.52 in 10.0 mi Calm Calm - N/A   Clear
6:55 PM 28.4 °F - 25.5 °F 89% 30.52 in 10.0 mi Calm Calm - N/A   Clear
7:15 PM 28.2 °F - 25.5 °F 90% 30.53 in 10.0 mi Calm Calm - N/A   Clear
7:35 PM 27.5 °F - 25.3 °F 92% 30.53 in 10.0 mi Calm Calm - N/A   Clear
7:55 PM 27.3 °F - 24.8 °F 90% 30.52 in 10.0 mi Calm Calm - N/A   Clear
8:15 PM 27.0 °F - 25.2 °F 93% 30.53 in 10.0 mi Calm Calm - N/A   Clear
8:35 PM 26.4 °F - 24.3 °F 92% 30.53 in 10.0 mi Calm Calm - N/A   Clear
8:55 PM 25.9 °F - 24.3 °F 94% 30.53 in 10.0 mi Calm Calm - N/A   Clear
9:15 PM 25.7 °F - 24.6 °F 96% 30.52 in 10.0 mi Calm Calm - N/A   Clear
9:35 PM 25.7 °F - 24.8 °F 96% 30.52 in 10.0 mi Calm Calm - N/A   Clear
9:55 PM 24.8 °F - 23.9 °F 96% 30.52 in 10.0 mi Calm Calm - N/A   Clear
10:15 PM 24.8 °F - 23.9 °F 96% 30.52 in 10.0 mi Calm Calm - N/A   Clear
10:35 PM 24.4 °F - 23.7 °F 97% 30.52 in 10.0 mi Calm Calm - N/A   Clear
10:55 PM 23.9 °F - 23.2 °F 97% 30.52 in 10.0 mi Calm Calm - N/A   Clear
11:15 PM 23.9 °F - 23.4 °F 98% 30.52 in 10.0 mi Calm Calm - N/A   Clear
11:35 PM 23.7 °F - 22.8 °F 96% 30.52 in 10.0 mi Calm Calm - N/A   Clear
11:55 PM 23.4 °F - 22.6 °F 97% 30.52 in 10.0 mi Calm Calm - N/A   Clear